Back to catalog

BREEZE-M DEB

LostHEO
NORAD 39988·DEBRIS·🇷🇺 Russia

Launched Mar 14, 2008 from Baikonur Cosmodrome

Loading…

Next Passes (next 24 hours)

TLE

StaleSource: Space-Track

Epoch: Jul 17, 2025, 02:08 UTC

1 39988U 08011DM  25198.08934632 -.00000072  00000-0  00000+0 0  9996
2 39988  49.0030  79.0366 5616967 252.3247  41.3112  2.86578779146867

Track BREEZE-M DEB in real time with AllMySat

Download on the App Store